Regional Weather Roundup
Issued by NWS

Home | Current Version | Previous Version | Graphics & Text | Print | Product List | Glossary On
Versions: 1 2 3 4 5 6 7 8 9 10 11 12 13 14 15 16 17 18 19 20 21 22 23 24 25 26 27 28 29 30 31 32 33 34 35 36 37 38 39 40 41 42 43 44 45 46 47 48 49 50
000
ASUS43 KFSD 200510
RWRSD

WEATHER ROUNDUP FOR SOUTH DAKOTA
NATIONAL WEATHER SERVICE SIOUX FALLS SD
1100 PM CST FRI DEC 19 2014

NOTE: "FAIR" INDICATES FEW OR NO CLOUDS BELOW 12,000 FEET WITH NO
SIGNIFICANT WEATHER AND/OR OBSTRUCTIONS TO VISIBILITY.


SDZ001>005-009-010-012>017-200600-
NORTHWEST AND NORTH CENTRAL SOUTH DAKOTA

CITY           SKY/WX    TMP DP  RH WIND       PRES   REMARKS
BUFFALO          N/A     30  20  66 W6        29.83S WCI  24
FAITH            N/A     34  23  64 S7        29.91F WCI  28
MOBRIDGE       CLEAR     22  20  92 SE8       29.92S WCI  12
$$

SDZ012>016-024>037-041>051-057-063-072>074-200600-
SOUTHWEST AND SOUTH CENTRAL SOUTH DAKOTA

CITY           SKY/WX    TMP DP  RH WIND       PRES   REMARKS
RAPID CTY ARPT CLEAR     24  19  81 W3        29.91S
PIERRE         CLEAR     16  14  92 E5        29.96S FOG     WCI   9
CUSTER         PTCLDY    23  15  71 CALM      29.90S
ELLSWORTH AFB  CLEAR     28  21  75 W6        29.90F WCI  21
PHILIP         CLEAR     22  18  85 W5        29.95S WCI  16
PINE RIDGE     PTCLDY    15  11  83 CALM      29.95F
SPEARFISH      FAIR      30  18  59 CALM      29.90F
WINNER         FAIR      30  23  75 S7        29.97F WCI  23
$$

SDZ004>011-016>023-039-040-200600-
NORTHEAST SOUTH DAKOTA

CITY           SKY/WX    TMP DP  RH WIND       PRES   REMARKS
ABERDEEN       CLOUDY    29  26  89 S10       30.01S FOG     WCI  20
WATERTOWN      CLOUDY    29  28  96 S14       30.01S FOG     WCI  18
SISSETON         N/A     31  28  89 SW9       30.02R WCI  23
$$

SDZ017-020-022-023-036>040-048>070-200600-
SOUTHEAST SOUTH DAKOTA

CITY           SKY/WX    TMP DP  RH WIND       PRES   REMARKS
SIOUX FALLS    CLOUDY    31  28  89 S9        30.07S WCI  23
HURON          CLOUDY    28  26  92 S12       30.03S FOG     WCI  18
CHAMBERLAIN    CLOUDY    17  16  93 E3        30.00R FOG
MITCHELL       CLOUDY    29  27  92 S12       30.05R FOG     WCI  19
YANKTON        CLOUDY    32  28  86 S3        30.07S
$$

ABBREVIATIONS USED IN REMARKS
   TC - TEMPERATURE IN CELSIUS
  WCI - WIND CHILL INDEX
   HX - HEAT INDEX
  VSB - VISIBILITY




USA.gov is the U.S. government's official web portal to all federal, state and local government web resources and services.